K3CHZ Weather Reports


Display with metric or nautical units.
time (UTC)temp
F
wind
direction
speed
MPH
gust
MPH
rain 1hr
in
rain 24hr
in
rain mn
in
humidity
%
barometer
mb
20260507213219 63 89 0.0 1.0 0.00 2.00 1.90 45 1008.4
20260507212719 63 88 0.0 0.0 0.00 2.00 1.90 43 1008.4
20260507212220 63 88 0.0 1.0 0.00 2.00 1.90 46 1008.4
20260507211719 63 317 0.0 1.0 0.00 2.00 1.90 42 1008.3
20260507211219 63 107 0.0 1.0 0.00 2.00 1.90 46 1008.5
20260507210720 63 105 0.0 1.0 0.00 2.00 1.90 44 1008.6
20260507210220 63 104 0.0 0.0 0.00 2.00 1.90 45 1008.5
20260507205719 63 104 0.0 0.0 0.00 2.00 1.90 41 1008.5
20260507205219 63 78 0.0 2.0 0.00 2.00 1.90 45 1008.5
20260507204719 63 78 0.0 2.0 0.00 2.00 1.90 46 1008.5
20260507204219 63 34 0.0 1.0 0.00 2.00 1.90 42 1008.5
20260507203719 63 343 0.0 2.0 0.00 2.00 1.90 43 1008.5
20260507203220 63 338 0.0 2.0 0.00 2.00 1.90 45 1008.4
20260507202720 63 334 0.0 3.0 0.00 2.00 1.90 46 1008.4
20260507202503 63 106 0.0 3.0 0.00 2.00 1.90 49 1008.4
20260507202004 63 315 0.0 3.0 0.00 2.00 1.90 39 1008.3
20260507201503 64 305 0.0 0.0 0.00 2.00 1.90 46 1008.4
20260507201004 64 303 0.0 0.0 0.00 2.00 1.90 43 1008.4
20260507200716 64 309 0.0 0.0 0.00 2.00 1.90 49 1008.3
20260507200216 64 273 0.0 3.0 0.00 2.00 1.90 43 1008.4
20260507195716 64 344 0.0 3.0 0.00 2.00 1.90 40 1008.6
20260507195216 64 37 0.0 1.0 0.00 2.00 1.90 45 1008.6
20260507194716 64 152 0.0 1.0 0.00 2.00 1.90 37 1008.7
20260507194216 64 333 0.0 2.0 0.00 2.00 1.90 41 1008.9
20260507193715 65 320 0.0 2.0 0.00 2.00 1.90 41 1009.0
20260507193216 65 330 0.0 1.0 0.00 2.00 1.90 37 1009.1
20260507192716 65 65 0.0 3.0 0.00 2.00 1.90 40 1009.3
20260507192216 65 314 0.0 3.0 0.00 2.00 1.90 42 1009.2
20260507191716 65 352 0.0 2.0 0.00 2.00 1.90 44 1009.2
20260507191216 65 290 0.0 1.0 0.00 2.00 1.90 43 1009.2
20260507190716 64 277 0.0 1.0 0.00 2.00 1.90 44 1009.3
20260507190216 65 340 0.0 1.0 0.00 2.00 1.90 44 1009.3
20260507185716 65 331 0.0 1.0 0.00 2.00 1.90 45 1009.3
20260507185216 65 328 0.0 3.0 0.00 2.00 1.90 41 1009.4
20260507184716 64 350 1.0 6.0 0.00 2.00 1.90 45 1009.4
20260507184215 64 5 0.0 6.0 0.00 2.00 1.90 45 1009.4
20260507183716 64 51 0.0 3.0 0.00 2.00 1.90 43 1009.6
20260507183216 64 90 1.0 3.0 0.00 2.00 1.90 39 1009.7
20260507182718 64 331 0.0 2.0 0.00 2.00 1.90 41 1009.7
20260507182217 64 333 0.0 3.0 0.00 2.00 1.90 41 1009.7
20260507181716 64 329 0.0 3.0 0.00 2.00 1.90 40 1009.9
20260507181216 64 346 1.0 3.0 0.00 2.00 1.90 45 1009.7
20260507180715 64 5 0.0 2.0 0.00 2.00 1.90 44 1009.9
20260507180215 64 263 0.0 0.0 0.00 2.00 1.90 42 1010.1
20260507175717 64 327 0.0 1.0 0.00 2.00 1.90 45 1010.1
20260507175217 63 351 0.0 1.0 0.00 2.00 1.90 44 1010.2
20260507174716 63 283 0.0 1.0 0.00 2.00 1.90 46 1010.3
20260507174216 63 283 0.0 2.0 0.00 2.00 1.90 46 1010.4
20260507173716 63 125 0.0 3.0 0.00 2.00 1.90 46 1010.5
20260507173216 63 62 1.0 3.0 0.00 2.00 1.90 46 1010.5
20260507172716 62 346 0.0 2.0 0.00 2.00 1.90 46 1010.5
20260507172222 62 349 0.0 5.0 0.00 2.00 1.90 46 1010.5
20260507171722 62 170 1.0 5.0 0.00 2.00 1.90 41 1010.6
20260507171222 62 232 1.0 3.0 0.00 2.00 1.90 53 1010.4
20260507170722 62 315 1.0 3.0 0.00 2.00 1.90 45 1010.6
20260507170223 62 143 0.0 2.0 0.00 2.00 1.90 45 1010.6
20260507165723 62 318 0.0 1.0 0.00 2.00 1.90 50 1010.8
20260507165223 61 317 0.0 1.0 0.00 2.00 1.90 50 1010.9
20260507164722 61 321 0.0 3.0 0.00 2.00 1.90 44 1011.1
20260507164221 61 321 0.0 3.0 0.00 2.00 1.90 48 1011.1
20260507163723 61 351 0.0 3.0 0.00 2.00 1.90 55 1011.2
20260507163222 60 317 0.0 3.0 0.00 2.00 1.90 55 1011.3
20260507162716 59 200 0.0 3.0 0.00 2.00 1.90 50 1011.4
20260507162216 59 293 1.0 3.0 0.00 2.00 1.90 56 1011.4
20260507161716 58 275 0.0 0.0 0.00 2.00 1.90 58 1011.4
20260507161216 58 121 0.0 1.0 0.00 2.00 1.90 53 1011.7
20260507160716 58 119 0.0 3.0 0.00 2.00 1.90 51 1011.6
20260507160217 58 288 0.0 3.0 0.00 2.00 1.90 53 1011.7
20260507155717 58 301 1.0 3.0 0.00 2.00 1.90 63 1011.8
20260507155217 58 47 0.0 0.0 0.00 2.00 1.90 53 1011.9
20260507154716 57 32 0.0 3.0 0.00 2.00 1.90 53 1011.8
20260507154216 57 317 0.0 3.0 0.00 2.00 1.90 61 1012.0
20260507153716 56 96 0.0 3.0 0.00 2.10 1.90 62 1012.0
20260507153218 55 41 0.0 0.0 0.00 2.10 1.90 71 1012.0
20260507152717 54 41 0.0 0.0 0.00 2.10 1.90 72 1012.1
20260507152219 53 34 0.0 0.0 0.00 2.10 1.90 76 1012.2
20260507151720 53 34 0.0 0.0 0.00 2.10 1.90 80 1012.3
20260507151219 53 55 0.0 0.0 0.00 2.10 1.90 78 1012.3
20260507150719 52 55 0.0 0.0 0.00 2.10 1.90 78 1012.3
20260507150219 52 73 0.0 0.0 0.00 2.10 1.90 79 1012.4
20260507145719 52 215 0.0 0.0 0.00 2.10 1.90 79 1012.4
20260507145218 52 304 0.0 0.0 0.00 2.10 1.90 79 1012.6
20260507144720 52 42 0.0 0.0 0.00 2.20 1.90 82 1012.6
20260507144219 52 42 0.0 0.0 0.00 2.30 1.90 80 1012.6
20260507143719 52 42 0.0 1.0 0.00 2.30 1.90 80 1012.7
20260507143219 52 56 0.0 1.0 0.00 2.30 1.90 83 1012.7
20260507142716 51 79 0.0 0.0 0.00 2.30 1.90 81 1012.8
20260507142216 51 97 0.0 0.0 0.00 2.40 1.90 83 1012.7
20260507141716 51 77 0.0 0.0 0.00 2.40 1.90 85 1012.8
20260507141216 51 345 0.0 0.0 0.00 2.50 1.90 83 1012.7
20260507140716 51 345 0.0 0.0 0.00 2.50 1.90 79 1012.9
20260507140217 51 345 0.0 0.0 0.00 2.50 1.90 83 1012.9
20260507135716 51 330 0.0 0.0 0.00 2.60 1.90 84 1013.1
20260507135215 51 330 0.0 0.0 0.00 2.60 1.90 89 1013.0
20260507134717 51 330 0.0 0.0 0.00 2.60 1.90 88 1013.0
20260507134216 51 119 0.0 0.0 0.00 2.70 1.90 88 1013.0
20260507133716 51 144 0.0 0.0 0.00 2.70 1.90 88 1013.1
20260507133216 51 144 0.0 0.0 0.00 2.80 1.90 90 1013.2
20260507132716 51 144 0.0 0.0 0.00 2.90 1.90 90 1013.1
20260507132219 51 144 0.0 0.0 0.00 2.90 1.90 91 1013.1
20260507131719 50 144 0.0 0.0 0.00 2.90 1.90 91 1013.2
20260507131219 50 143 0.0 0.0 0.00 3.00 1.90 92 1013.1
20260507130719 50 209 0.0 0.0 0.00 3.00 1.90 90 1012.9
20260507130219 50 209 0.0 0.0 0.00 3.10 1.90 90 1013.1
20260507125719 50 209 0.0 0.0 0.00 3.20 1.90 90 1013.0
20260507125219 50 209 0.0 1.0 0.00 3.20 1.90 91 1013.0
20260507124719 50 209 0.0 1.0 0.00 3.20 1.90 90 1012.9
20260507124219 50 279 0.0 1.0 0.00 3.30 1.90 91 1013.0
20260507123719 50 271 0.0 0.0 0.00 3.30 1.90 92 1013.0
20260507123219 50 217 0.0 0.0 0.00 3.40 1.90 93 1013.0
20260507122716 50 155 0.0 0.0 0.00 3.40 1.90 93 1013.0
20260507122219 50 155 0.0 0.0 0.00 3.50 1.90 93 1012.9
20260507121716 50 155 0.0 0.0 0.00 3.50 1.90 93 1012.8
20260507121216 50 155 0.0 0.0 0.00 3.50 1.90 93 1012.7
20260507120717 49 23 0.0 0.0 0.00 3.50 1.90 92 1012.6
20260507120217 49 23 0.0 0.0 0.00 3.50 1.90 92 1012.7
20260507115716 49 23 0.0 0.0 0.00 3.50 1.90 91 1012.6
20260507115218 49 23 0.0 0.0 0.00 3.50 1.90 91 1012.7
20260507114718 49 23 0.0 0.0 0.00 3.50 1.90 90 1012.7
20260507114216 49 23 0.0 0.0 0.00 3.50 1.90 89 1012.6
20260507113716 49 23 0.0 0.0 0.00 3.50 1.90 90 1012.7
20260507113217 49 166 0.0 0.0 0.00 3.50 1.90 90 1012.7
20260507112718 49 171 0.0 0.0 0.00 3.50 1.90 90 1012.6
20260507112216 50 171 0.0 0.0 0.00 3.50 1.90 91 1012.7
20260507111717 50 171 0.0 0.0 0.00 3.50 1.90 92 1012.6
20260507111217 50 171 0.0 0.0 0.00 3.50 1.90 92 1012.6
20260507110718 50 171 0.0 0.0 0.00 3.50 1.90 91 1012.5
20260507110216 50 171 0.0 0.0 0.00 3.50 1.90 92 1012.6
20260507105717 51 171 0.0 0.0 0.00 3.50 1.90 91 1012.6
20260507105216 51 171 0.0 0.0 0.00 3.50 1.90 93 1012.4
20260507104716 51 171 0.0 0.0 0.00 3.50 1.90 94 1012.3
20260507104216 51 171 0.0 0.0 0.00 3.50 1.90 95 1012.1
20260507103719 51 171 0.0 0.0 0.00 3.50 1.90 94 1012.1
20260507103216 51 171 0.0 0.0 0.00 3.50 1.90 94 1012.1
20260507102717 51 171 0.0 0.0 0.00 3.50 1.90 95 1012.0
20260507102219 51 171 0.0 0.0 0.00 3.50 1.90 94 1012.0
20260507101721 51 306 0.0 0.0 0.00 3.50 1.90 94 1011.9
20260507101220 51 306 0.0 0.0 0.00 3.50 1.90 94 1011.7
20260507100719 51 306 0.0 0.0 0.00 3.50 1.90 94 1011.8
20260507100219 51 306 0.0 0.0 0.00 3.50 1.90 94 1011.7
20260507095719 51 306 0.0 0.0 0.00 3.50 1.90 95 1011.9
20260507095219 51 306 0.0 0.0 0.00 3.50 1.90 95 1011.8
20260507094719 51 306 0.0 0.0 0.00 3.50 1.90 95 1011.8
20260507094219 51 306 0.0 0.0 0.00 3.50 1.90 95 1011.7
20260507093719 51 306 0.0 0.0 0.00 3.50 1.90 94 1011.5
20260507093220 51 306 0.0 0.0 0.00 3.50 1.90 94 1011.6
20260507092713 51 306 0.0 0.0 0.00 3.50 1.90 94 1011.7
20260507092214 51 306 0.0 0.0 0.00 3.50 1.90 94 1011.7
20260507091714 51 306 0.0 0.0 0.00 3.50 1.90 94 1011.7
20260507091213 51 306 0.0 0.0 0.00 3.50 1.90 94 1011.8
20260507090713 51 306 0.0 0.0 0.00 3.50 1.90 94 1011.9
20260507090213 51 306 0.0 0.0 0.00 3.50 1.90 94 1011.7
20260507085713 52 306 0.0 0.0 0.00 3.50 1.90 94 1011.6
20260507085213 52 306 0.0 0.0 0.00 3.50 1.90 94 1011.5
20260507084714 52 306 0.0 0.0 0.10 3.50 1.90 94 1011.4
20260507084214 52 306 0.0 0.0 0.10 3.50 1.90 94 1011.7
20260507083715 52 306 0.0 0.0 0.10 3.50 1.90 94 1011.3
20260507083215 52 306 0.0 0.0 0.10 3.50 1.90 94 1011.4
20260507082714 52 306 0.0 0.0 0.10 3.50 1.90 93 1011.2
20260507082216 52 306 0.0 0.0 0.10 3.50 1.90 93 1010.9
20260507081717 52 306 0.0 0.0 0.10 3.50 1.90 93 1010.9
20260507081216 52 306 0.0 0.0 0.10 3.50 1.90 93 1010.9
20260507080717 52 306 0.0 0.0 0.10 3.50 1.90 93 1010.9
20260507080217 52 306 0.0 0.0 0.20 3.50 1.90 93 1010.8
20260507075716 52 306 0.0 0.0 0.20 3.50 1.90 93 1010.7
20260507075216 52 306 0.0 0.0 0.20 3.50 1.90 93 1010.7
20260507074717 53 306 0.0 1.0 0.20 3.40 1.80 93 1010.8
20260507074218 53 306 0.0 1.0 0.20 3.40 1.80 93 1010.7
20260507073716 53 306 0.0 0.0 0.20 3.40 1.80 94 1010.6
20260507073216 53 306 0.0 0.0 0.20 3.40 1.80 94 1010.7
20260507072716 53 306 0.0 0.0 0.20 3.40 1.80 93 1010.9
20260507072220 53 306 0.0 0.0 0.20 3.40 1.80 93 1010.8
20260507071720 53 306 0.0 0.0 0.20 3.40 1.80 93 1010.6
20260507071219 54 306 0.0 0.0 0.20 3.40 1.80 93 1010.6
20260507070720 54 306 0.0 0.0 0.20 3.40 1.80 93 1010.7
20260507070221 54 306 0.0 1.0 0.10 3.30 1.70 93 1010.8
20260507065719 54 306 0.0 1.0 0.10 3.30 1.70 93 1011.0
20260507065219 54 306 0.0 1.0 0.10 3.30 1.70 94 1011.1
20260507064719 54 306 0.0 1.0 0.00 3.20 1.60 94 1011.2
20260507064219 54 306 0.0 0.0 0.00 3.20 1.60 94 1011.0
20260507063719 55 306 0.0 0.0 0.00 3.20 1.60 94 1010.7
20260507063219 55 306 0.0 0.0 0.00 3.20 1.60 94 1010.7
20260507062717 55 306 0.0 0.0 0.00 3.20 1.60 94 1010.7
20260507062216 55 306 0.0 0.0 0.00 3.20 1.60 94 1011.0
20260507061718 55 306 0.0 0.0 0.10 3.20 1.60 94 1010.9
20260507061216 55 306 0.0 0.0 0.10 3.20 1.60 94 1010.9
20260507060718 55 306 0.0 0.0 0.20 3.20 1.60 94 1011.1
20260507060218 55 306 0.0 0.0 0.40 3.20 1.60 94 1011.0
20260507055717 55 306 0.0 0.0 0.50 3.20 1.60 94 1010.9
20260507055216 55 306 0.0 0.0 0.70 3.20 1.60 94 1010.9
20260507054716 55 306 0.0 0.0 0.80 3.20 1.60 94 1011.1
20260507054216 55 306 0.0 0.0 1.00 3.20 1.60 94 1011.1
20260507053716 55 306 0.0 0.0 1.20 3.20 1.60 94 1010.9
20260507053217 55 306 0.0 0.0 1.40 3.20 1.60 94 1011.2
20260507052717 55 306 0.0 0.0 1.40 3.20 1.60 94 1011.2
20260507052219 55 306 0.0 0.0 1.40 3.20 1.60 94 1011.2
20260507051720 55 306 0.0 0.0 1.30 3.10 1.50 93 1010.8
20260507051219 56 306 0.0 0.0 1.30 3.10 1.50 93 1010.8
20260507050720 56 306 0.0 0.0 1.30 3.00 1.40 93 1010.6
20260507050219 56 306 0.0 0.0 1.10 2.80 1.20 92 1010.9
20260507045720 56 306 0.0 0.0 1.10 2.70 1.10 92 1011.2
20260507045219 56 306 0.0 1.0 1.00 2.50 0.90 92 1011.2
20260507044720 56 306 0.0 1.0 0.90 2.40 0.80 92 1011.4
20260507044220 57 306 0.0 0.0 0.70 2.20 0.60 91 1011.5
20260507043720 57 306 0.0 0.0 0.50 2.00 0.40 91 1010.9
20260507043219 57 306 0.0 0.0 0.30 1.80 0.20 90 1011.0
20260507042723 57 306 0.0 0.0 0.30 1.80 0.20 90 1010.8
20260507042220 58 306 0.0 0.0 0.30 1.80 0.20 90 1010.9
20260507041722 58 306 0.0 0.0 0.30 1.80 0.20 89 1010.9
20260507041219 58 306 0.0 0.0 0.30 1.80 0.20 89 1011.0
20260507040727 59 306 0.0 0.0 0.20 1.70 0.10 88 1010.6
20260507040220 59 306 0.0 1.0 0.20 1.70 0.10 87 1010.6
20260507035720 60 306 0.0 1.0 0.10 1.60 0.00 86 1010.4
20260507035219 60 306 0.0 0.0 0.00 1.50 1.50 84 1010.4
20260507034719 60 306 0.0 0.0 0.00 1.50 1.50 84 1010.5
20260507034220 60 306 0.0 0.0 0.00 1.50 1.50 84 1010.4
20260507033720 60 306 0.0 0.0 0.00 1.50 1.50 84 1010.3
20260507033221 60 306 0.0 0.0 0.00 1.50 1.50 83 1010.1
20260507032716 60 306 0.0 0.0 0.00 1.50 1.50 83 1010.4
20260507032216 60 306 0.0 0.0 0.00 1.50 1.50 83 1010.4
20260507031717 60 306 0.0 0.0 0.00 1.50 1.50 83 1010.3
20260507031216 60 306 0.0 1.0 0.00 1.50 1.50 84 1010.3
20260507030717 61 306 0.0 2.0 0.00 1.50 1.50 84 1010.2
20260507030216 61 306 0.0 2.0 0.00 1.50 1.50 85 1010.2
20260507025718 61 306 0.0 0.0 0.00 1.50 1.50 84 1009.9
20260507025218 61 306 0.0 0.0 0.00 1.50 1.50 85 1009.9
20260507024717 61 306 0.0 0.0 0.00 1.50 1.50 84 1010.0
20260507024217 61 306 0.0 0.0 0.00 1.50 1.50 85 1010.0
20260507023717 61 306 0.0 0.0 0.00 1.50 1.50 85 1009.9
20260507023217 62 306 0.0 0.0 0.00 1.50 1.50 86 1009.9
20260507022717 62 306 0.0 1.0 0.00 1.50 1.50 86 1009.7
20260507022219 62 306 0.0 1.0 0.00 1.50 1.50 87 1009.6
20260507021719 62 306 0.0 0.0 0.00 1.50 1.50 86 1009.7
20260507021220 62 306 0.0 0.0 0.00 1.50 1.50 87 1009.6
20260507020721 63 306 0.0 2.0 0.00 1.50 1.50 88 1009.9
20260507020219 63 306 0.0 2.0 0.00 1.50 1.50 89 1009.7
20260507015720 63 306 0.0 2.0 0.00 1.50 1.50 89 1009.8
20260507015219 63 306 0.0 1.0 0.00 1.50 1.50 90 1009.7
20260507014720 63 306 0.0 0.0 0.00 1.50 1.50 91 1009.4
20260507014219 63 306 0.0 0.0 0.00 1.50 1.50 90 1009.4
20260507013722 64 306 0.0 0.0 0.00 1.50 1.50 90 1009.6
20260507013220 64 306 0.0 0.0 0.00 1.50 1.50 90 1009.7
20260507012717 64 306 0.0 0.0 0.00 1.50 1.50 90 1009.8
20260507012216 64 306 0.0 0.0 0.00 1.50 1.50 90 1009.8
20260507011719 64 306 0.0 0.0 0.00 1.50 1.50 89 1009.8
20260507011217 64 306 0.0 0.0 0.00 1.50 1.50 89 1009.9
20260507010717 64 306 0.0 0.0 0.00 1.50 1.50 88 1009.9
20260507010217 64 306 0.0 0.0 0.00 1.50 1.50 87 1009.9
20260507005716 65 306 0.0 0.0 0.00 1.50 1.50 87 1009.7
20260507005217 65 306 0.0 0.0 0.00 1.50 1.50 86 1009.5
20260507004717 66 306 0.0 3.0 0.00 1.50 1.50 85 1009.5
20260507004217 66 306 1.0 3.0 0.00 1.50 1.50 85 1009.7
20260507003718 66 306 0.0 3.0 0.00 1.50 1.50 86 1009.5
20260507003217 66 301 2.0 3.0 0.00 1.50 1.50 86 1009.2
20260507002717 66 288 0.0 0.0 0.00 1.50 1.50 86 1009.3
20260507002218 66 288 0.0 0.0 0.00 1.50 1.50 86 1009.0
20260507001717 66 288 0.0 0.0 0.00 1.50 1.50 85 1009.0
20260507001217 66 288 0.0 0.0 0.00 1.50 1.50 85 1008.9
20260507000717 66 288 0.0 0.0 0.00 1.50 1.50 85 1009.1
20260507000216 67 288 0.0 0.0 0.00 1.50 1.50 86 1009.0
20260506235716 67 288 0.0 0.0 0.00 1.50 1.50 86 1008.8
20260506235217 67 288 0.0 0.0 0.00 1.50 1.50 86 1008.9
20260506234717 67 288 0.0 0.0 0.00 1.50 1.50 85 1008.8
20260506234216 67 288 0.0 0.0 0.00 1.50 1.50 85 1008.4
20260506233718 67 288 0.0 0.0 0.00 1.50 1.50 85 1008.6
20260506233217 67 288 0.0 0.0 0.00 1.50 1.50 84 1008.6
20260506232717 67 288 0.0 0.0 0.00 1.50 1.50 83 1008.6
20260506232216 67 130 0.0 0.0 0.00 1.50 1.50 83 1008.4
20260506231716 67 130 0.0 0.0 0.00 1.50 1.50 82 1008.3
20260506231216 67 130 0.0 0.0 0.00 1.50 1.50 82 1008.4
20260506230716 68 130 0.0 0.0 0.00 1.50 1.50 82 1008.3
20260506230216 68 130 0.0 0.0 0.00 1.50 1.50 82 1008.4
20260506225717 68 130 0.0 0.0 0.00 1.50 1.50 82 1008.5
20260506225217 68 130 0.0 0.0 0.00 1.50 1.50 83 1008.4
20260506224717 68 130 0.0 0.0 0.00 1.50 1.50 83 1008.3
20260506224217 68 130 0.0 0.0 0.00 1.50 1.50 82 1008.3
20260506223716 68 130 0.0 0.0 0.00 1.50 1.50 81 1008.2
20260506223216 67 130 0.0 0.0 0.00 1.50 1.50 82 1008.1
20260506222717 67 130 0.0 0.0 0.00 1.50 1.50 82 1008.5
20260506222220 67 130 0.0 0.0 0.00 1.50 1.50 82 1008.5
20260506221723 68 130 0.0 0.0 0.00 1.50 1.50 82 1008.5
20260506221220 68 212 0.0 0.0 0.00 1.50 1.50 81 1008.4
20260506220722 68 213 0.0 0.0 0.00 1.50 1.50 80 1008.4
20260506220220 68 213 0.0 0.0 0.00 1.50 1.50 80 1008.4
20260506215720 68 213 0.0 0.0 0.00 1.50 1.50 80 1008.4
20260506215223 68 213 0.0 0.0 0.00 1.50 1.50 79 1008.3
20260506214721 68 213 0.0 0.0 0.00 1.50 1.50 80 1008.3
20260506214219 68 213 0.0 1.0 0.00 1.50 1.50 79 1008.2
20260506213720 69 213 0.0 1.0 0.00 1.50 1.50 79 1008.1